{"data":{"norad_id":51878,"epoch":"2026-09-20T03:57:46.838880Z","epoch_age_seconds":81171,"freshness":"FRESH","line1":"1 51878U 22022AC  26263.16512545  .00002038  00000+0  69304-4 0  9993","line2":"2 51878  53.1592 205.8033 0001304  80.3873 279.7277 15.35404619252619","mean_motion":15.35404619,"eccentricity":0.0001304,"inclination_deg":53.1592,"raan_deg":205.8033,"arg_perigee_deg":80.3873,"mean_anomaly_deg":279.7277,"bstar":6.9304e-5,"rev_number":25261,"period_min":93.786353263537,"perigee_km":458.82727262003,"apogee_km":460.61058544632,"semimajor_km":6837.8559290332,"source":"CELESTRAK","updated_at":"2026-09-20T09:00:39.949981Z"}}